Location: Ammerl�gen
(47.2167°N, 9.6000°E)
Time: 03:44:02
(UTC+00:00)

BEESAT 2 - Visible Passes

Search period start: 29 November 2021 00:00
Search period end: 09 December 2021 00:00
Orbit: 497 x 517 km, 64.9° (Epoch: 28 November)

Date Brightness Start Highest point End Pass type
(mag) Time Alt. Az. Time Alt. Az. Time Alt. Az.
29 Nov ? 05:47:32 10° NNW 05:50:37 22° NE 05:53:40 10° E visible
30 Nov ? 05:29:01 10° NNW 05:32:04 21° NE 05:35:05 10° E visible
01 Dec ? 05:10:32 10° NNW 05:13:31 20° NE 05:16:29 10° E visible
02 Dec ? 04:52:41 13° N 04:54:57 20° NE 04:57:53 10° E visible
03 Dec ? 04:34:53 16° N 04:36:23 19° NE 04:39:16 10° E visible
03 Dec ? 06:10:21 10° NW 06:14:14 66° SW 06:18:04 10° SSE visible
04 Dec ? 04:17:06 18° NNE 04:17:49 19° NE 04:20:39 10° E visible
04 Dec ? 05:51:55 11° NW 05:55:41 69° SW 05:59:31 10° SSE visible
05 Dec ? 03:59:23 18° NE 03:59:23 18° NE 04:02:01 10° E visible
05 Dec ? 05:34:12 17° NW 05:37:08 72° SW 05:40:59 10° SSE visible
06 Dec ? 03:41:43 16° NE 03:41:43 16° NE 03:43:23 10° E visible
06 Dec ? 05:16:33 27° NW 05:18:34 76° SW 05:22:25 10° SSE visible
07 Dec ? 03:24:07 12° ENE 03:24:07 12° ENE 03:24:44 10° ENE visible
07 Dec ? 04:58:57 47° NW 05:00:00 79° SW 05:03:51 10° SSE visible
08 Dec ? 04:41:26 82° SW 04:41:26 82° SW 04:45:17 10° SSE visible
